Wind_Speed
6 6 5 6 7 8 8 9 8 8 7 8 8 8 8 9 9 9 9 10 10 10 10 11 11 12 12 13 13 13 13 13 12 12 13 13 13 14 15 15 15 15 15 16 16 15 16 16 17 18 20 21 21 21 21 22 22 22 23 24 24 24 24 23 23 22 24 23 24 24 25 25 26 26 27 27 27 27 27 27 27 28 28 28 28
5 4 4 5 6 7 7 7 6 6 6 6 7 7 8 8 8 9 9 10 10 10 11 11 12 12 13 13 13 13 13 13 13 13 13 14 14 14 14 15 15 16 16 16 17 18 18 18 18 19 20 21 22 22 23 23 22 22 23 23 23 23 24 24 24 24 24 24 24 24 25 25 25 26 27 28 28 28 28 27 28 29 29 28 28
4 3 3 4 5 5 5 5 5 5 5 6 6 7 7 7 8 8 9 10 10 11 11 11 12 12 12 12 13 13 13 14 14 14 14 14 14 14 15 15 15 16 16 17 18 18 19 19 20 20 20 21 22 22 23 23 22 23 24 23 23 23 24 24 25 25 26 26 26 26 26 26 26 26 26 27 27 28 27 27 28 29 29 29 29
3 2 2 3 4 4 4 5 4 4 5 5 6 6 7 7 8 9 9 10 10 11 11 12 12 12 13 13 13 14 14 15 15 15 15 15 15 15 15 15 16 16 16 17 17 18 19 19 20 20 20 21 22 22 22 23 23 23 23 23 23 24 25 25 25 25 26 27 27 27 28 28 27 27 26 27 27 27 26 27 28 29 29 28 29
2 1 2 3 3 4 4 5 4 4 5 5 6 6 7 8 8 9 9 10 11 12 12 13 13 14 14 14 15 15 16 16 17 17 16 16 17 16 16 16 17 17 17 18 18 18 19 19 19 19 20 21 21 22 22 23 23 23 23 23 24 24 25 25 25 26 26 27 27 28 29 29 28 28 28 28 28 28 27 28 28 28 28 27 28
1 1 2 2 3 3 4 4 3 4 4 5 6 6 7 8 9 10 10 11 12 13 14 14 14 15 15 16 16 17 17 18 18 18 16 17 18 18 18 18 18 18 19 19 19 20 20 20 20 20 20 21 22 22 22 23 23 24 24 24 25 25 26 26 26 26 26 27 28 29 29 29 29 29 29 29 29 29 29 30 29 29 29 28 29
1 1 1 2 2 3 3 2 3 3 4 5 6 7 8 9 10 11 12 12 13 14 14 15 15 15 16 16 17 17 18 18 19 19 18 18 18 18 18 18 18 19 19 19 20 20 20 20 21 21 21 22 22 23 23 23 23 24 25 25 25 26 26 26 27 27 28 28 29 29 30 29 29 29 29 29 29 30 30 30 30 30 30 30 30
1 0 1 2 2 3 2 2 3 4 5 6 7 8 9 10 11 12 13 13 14 15 15 15 15 16 17 17 17 18 19 19 19 19 19 19 18 18 17 17 18 18 19 19 19 19 19 19 20 20 20 21 21 22 22 23 23 24 25 25 26 26 26 27 27 28 29 29 30 30 30 29 29 29 29 30 30 30 30 30 31 30 30 31 32
2 1 1 1 2 3 3 3 4 6 7 8 9 9 10 11 12 13 14 15 15 16 16 16 16 17 18 18 18 19 19 19 19 19 20 19 18 17 17 17 17 17 17 17 17 18 18 18 19 19 19 20 20 20 21 21 22 23 23 24 25 25 26 26 27 28 29 29 30 30 30 30 31 30 30 30 31 31 31 31 31 31 30 31 32
2 1 1 1 2 3 4 5 6 8 9 10 11 11 12 13 13 14 15 16 16 16 16 16 17 17 18 18 18 18 19 19 19 19 20 19 18 17 16 17 16 17 17 17 18 17 18 18 18 19 20 20 20 20 20 21 21 22 23 23 24 24 25 25 26 27 28 28 30 30 31 31 31 31 30 31 31 32 32 32 32 32 31 31 31
2 2 2 3 4 5 6 7 8 8 10 11 12 12 13 13 14 15 16 16 17 16 15 15 17 18 18 18 17 17 18 18 17 18 19 18 17 17 17 17 17 17 18 18 19 19 19 20 21 21 22 22 22 22 22 23 23 23 23 24 24 24 25 25 26 27 27 28 28 29 30 31 32 32 31 32 32 32 33 33 33 33 32 31 31
3 2 3 4 5 5 6 7 8 8 10 11 12 13 14 14 15 16 16 16 16 16 15 15 16 18 18 17 17 17 17 16 16 16 17 17 17 18 18 19 19 20 20 21 22 21 21 22 23 23 23 24 24 24 24 25 25 25 26 26 26 26 26 27 28 28 28 28 29 29 30 31 32 32 32 33 34 34 34 34 34 34 33 33 32
2 3 4 4 4 5 6 7 8 8 10 11 12 14 15 15 16 16 15 15 15 15 16 16 16 17 17 16 16 16 16 15 15 15 16 17 18 19 20 20 21 22 22 23 24 24 23 23 24 23 23 25 26 25 24 26 28 28 28 29 29 29 29 29 30 30 29 29 30 30 30 31 31 32 33 34 35 35 35 35 35 35 35 34 33
2 3 4 5 5 7 8 8 9 10 10 12 13 14 15 15 14 15 15 15 15 15 16 17 17 16 16 16 15 15 15 15 16 16 17 19 19 21 21 22 23 23 23 23 24 25 25 24 25 25 25 26 27 27 26 27 29 30 30 30 30 31 31 32 32 32 31 31 31 32 32 32 32 33 33 34 35 36 36 36 36 37 36 36 35
2 3 4 5 6 7 9 10 11 11 12 13 14 14 15 14 13 13 14 15 15 16 17 17 16 16 15 14 14 14 15 16 17 18 19 20 21 22 23 23 24 25 25 25 25 25 26 26 26 26 27 27 28 28 28 28 29 30 31 31 32 32 33 33 33 33 33 32 33 33 33 34 34 35 35 36 36 36 37 37 38 38 38 37 36
4 4 5 7 7 8 9 10 12 12 12 13 15 15 15 15 13 13 14 15 15 16 17 16 16 15 15 14 15 16 17 18 19 20 20 21 23 24 24 25 25 26 26 26 27 27 28 28 27 28 28 29 29 30 30 30 30 32 32 33 33 33 34 34 34 34 34 34 34 35 35 35 35 36 37 37 37 37 37 38 38 38 38 38 37
6 6 6 8 8 9 10 11 12 12 12 13 14 15 15 15 14 14 14 15 15 16 16 16 15 16 15 15 16 17 18 19 21 22 22 23 24 25 25 26 27 27 27 28 28 29 30 30 30 30 30 30 31 31 32 32 32 33 34 35 35 36 36 36 36 36 36 36 36 36 36 36 37 37 37 38 39 39 39 39 39 39 39 39 38
6 7 8 8 9 10 11 11 11 11 11 12 13 13 14 14 15 15 15 15 14 14 14 15 15 16 16 16 17 19 20 21 22 23 24 25 26 26 26 27 29 29 28 29 29 29 30 31 31 31 31 31 32 32 32 33 34 34 36 37 38 38 38 39 39 39 39 39 39 38 38 38 38 39 39 39 39 39 40 40 40 40 40 39 38
7 8 9 10 11 11 11 11 10 10 10 11 11 12 13 14 15 15 14 13 12 13 13 14 15 16 17 18 19 21 22 24 24 25 26 26 27 27 27 28 29 29 29 29 30 30 30 31 31 31 32 32 32 33 34 34 35 36 37 38 39 40 40 40 40 40 40 40 40 40 39 40 40 40 40 40 40 40 41 41 42 42 41 39 38
9 10 11 11 11 11 11 10 9 9 9 10 10 11 12 13 14 14 13 12 12 13 14 15 16 17 19 20 22 23 24 25 25 26 27 27 28 27 28 28 28 29 29 29 30 30 31 31 32 32 33 34 34 35 36 36 37 38 38 39 40 40 40 40 39 39 39 39 39 39 39 40 40 40 41 41 41 42 42 42 43 44 43 41 39
10 10 11 11 11 11 11 10 9 9 9 9 10 11 11 12 12 12 12 12 13 15 16 18 19 20 21 22 23 24 25 25 26 27 27 28 28 28 28 29 29 30 30 30 31 31 32 32 33 34 35 36 36 37 38 38 38 39 39 39 39 38 37 37 36 36 36 36 36 36 36 38 39 40 40 40 41 42 42 43 44 45 45 43 40
9 10 11 11 12 11 11 11 10 10 10 11 11 11 10 10 10 11 12 14 15 17 19 20 21 22 22 23 23 24 25 26 27 27 27 27 28 28 29 29 29 30 30 31 31 32 32 33 34 35 36 36 37 37 37 37 37 37 38 38 37 35 34 34 33 33 33 33 32 32 33 35 36 37 37 38 39 40 41 42 43 45 45 44 40
10 10 10 11 12 12 11 10 10 11 12 12 12 11 11 11 12 13 14 15 17 18 20 21 22 22 23 23 25 26 26 27 27 27 28 28 28 28 29 29 29 30 30 31 31 32 32 33 34 34 35 35 35 35 35 35 34 35 35 36 36 34 34 34 33 32 32 31 31 30 31 32 34 34 35 35 36 37 38 40 41 44 45 44 41
10 9 9 10 11 11 11 10 11 12 13 13 12 12 12 13 13 14 16 17 18 19 20 22 22 23 23 24 26 26 27 27 27 27 27 27 27 28 28 28 29 29 30 31 31 32 32 32 33 33 33 33 32 32 32 32 33 33 33 34 35 34 34 34 34 33 33 32 31 31 31 32 32 32 33 33 34 34 35 37 39 42 44 42 42
9 9 8 10 10 10 11 11 12 12 12 12 11 12 13 13 14 16 17 18 19 20 21 22 23 23 24 25 26 26 27 26 26 26 26 26 26 27 27 28 29 29 30 31 31 31 31 31 31 31 31 31 31 31 30 31 31 32 33 33 34 34 35 35 35 34 34 34 33 32 32 32 32 32 32 32 32 32 32 34 36 39 41 40 42
9 9 8 9 10 11 12 12 12 12 11 11 11 12 12 13 15 16 18 18 19 20 21 22 23 24 24 25 25 26 26 25 25 25 25 25 26 26 27 28 29 30 30 30 30 31 30 30 30 30 30 31 31 30 30 30 30 31 31 32 33 34 35 35 34 33 33 33 34 34 33 33 33 32 32 31 31 30 30 32 34 37 37 37 40
10 9 9 10 10 11 12 12 11 11 10 10 11 12 13 14 16 17 18 19 20 21 22 22 23 24 24 25 25 24 24 24 24 25 25 25 26 27 28 28 29 30 30 30 30 30 30 30 30 30 31 31 31 30 29 29 29 30 30 30 31 32 33 33 32 32 32 32 33 33 33 33 33 33 32 31 30 30 29 31 33 36 35 34 38
10 10 10 10 11 11 11 11 11 10 10 11 12 13 15 16 16 17 18 19 20 21 22 23 23 23 23 24 24 23 23 24 24 25 25 26 27 27 28 29 29 30 30 30 30 29 30 30 31 31 32 32 32 31 30 30 30 30 30 30 30 30 31 31 31 31 31 31 31 31 32 32 33 33 32 32 30 29 29 30 30 32 32 32 37
10 11 11 11 11 11 11 10 10 10 11 12 14 15 16 16 17 18 19 19 20 21 22 23 23 23 23 23 23 24 24 24 25 25 26 26 27 28 28 29 29 30 31 30 30 30 31 32 33 34 34 35 35 35 34 33 32 32 31 30 29 29 29 29 29 30 30 30 30 30 30 31 31 31 32 31 30 29 29 28 27 27 28 30 36
11 12 12 12 11 11 10 10 10 11 12 13 14 15 15 16 18 18 19 20 21 22 22 22 23 23 23 23 24 24 25 25 25 26 26 27 27 28 28 29 30 31 31 31 31 33 35 36 37 37 39 39 40 40 38 35 33 32 30 28 28 27 27 27 27 27 27 28 28 28 28 28 28 29 29 29 28 27 27 25 24 23 23 26 31
12 12 12 12 11 10 10 10 11 12 13 14 14 15 16 17 18 18 20 21 21 21 21 22 23 24 23 24 25 25 25 25 26 26 27 27 28 28 29 30 30 31 32 32 34 35 36 38 39 41 42 42 40 39 37 34 30 28 27 27 27 27 27 27 26 26 25 25 25 25 25 25 26 26 26 26 26 25 24 22 22 22 20 21 24
12 12 12 11 10 10 9 10 11 12 13 14 15 16 17 17 18 19 20 20 20 21 21 23 24 24 24 24 25 25 26 26 27 27 27 27 28 28 30 31 31 31 32 34 35 34 35 37 39 40 40 38 36 33 31 29 27 26 26 26 26 26 26 25 24 24 22 22 22 22 23 23 24 24 24 23 23 23 22 22 23 22 19 18 18
12 12 11 11 10 10 10 11 12 12 13 14 15 16 16 17 18 19 19 19 20 21 22 24 24 24 24 25 25 26 26 27 27 27 27 28 28 29 31 31 32 33 34 34 34 34 36 38 37 36 34 32 29 27 26 26 26 26 25 24 23 23 23 23 22 21 20 19 18 19 19 20 21 22 22 21 20 20 21 22 23 21 19 19 18
12 11 11 11 10 10 11 12 12 12 13 14 15 16 16 17 18 18 18 19 21 22 23 24 24 24 25 25 26 26 26 27 27 28 28 28 29 30 31 32 33 35 35 34 34 35 38 40 37 31 28 27 26 25 25 25 25 23 22 22 21 20 21 20 20 18 17 16 16 16 16 17 17 18 18 18 17 17 18 19 20 20 20 20 19
12 11 11 11 11 11 11 12 12 13 14 15 15 16 17 17 17 18 19 20 22 23 24 24 24 25 25 26 26 26 26 27 27 28 28 28 30 30 31 33 34 34 34 34 36 37 38 38 34 28 25 24 25 26 25 24 23 22 20 20 20 19 20 19 18 16 15 15 15 16 15 15 14 14 14 14 14 14 14 15 17 19 21 21 20
12 11 11 11 11 11 11 12 13 14 14 15 15 16 17 16 17 18 20 21 23 24 24 24 24 25 25 26 26 26 27 27 28 28 28 29 30 31 32 33 33 33 33 35 37 38 37 33 29 27 25 24 25 25 25 24 23 22 20 19 18 18 19 18 17 16 15 15 16 16 15 14 13 13 13 12 11 11 12 13 15 18 20 21 22
11 11 11 11 11 11 12 13 14 14 15 15 16 16 16 17 18 19 20 22 23 24 24 24 24 25 26 26 26 27 27 27 28 28 29 30 31 32 33 33 33 33 34 35 37 37 35 29 25 25 25 25 25 25 25 25 23 21 20 20 20 20 20 19 17 16 14 14 15 15 15 14 13 13 12 11 10 10 11 12 13 16 17 18 22
12 12 12 11 11 11 13 14 14 14 15 15 16 16 16 17 18 19 21 23 24 24 24 24 25 25 26 26 26 27 27 27 27 28 29 30 31 33 33 32 32 33 34 36 37 35 31 27 24 25 26 26 25 26 26 25 23 22 23 24 24 23 22 21 19 17 16 15 14 14 13 13 13 13 13 12 10 10 10 11 13 14 14 16 20
12 12 12 11 11 12 13 13 14 14 15 15 15 15 16 17 19 21 22 23 24 24 24 24 25 26 26 26 26 27 27 27 27 28 29 30 32 33 32 32 32 33 35 37 38 34 29 26 24 24 26 26 26 26 26 25 25 25 26 26 26 26 25 24 23 21 18 17 15 13 12 13 14 14 14 13 12 11 11 11 12 12 12 14 17
11 12 12 11 11 12 13 13 14 14 15 15 15 16 16 18 19 21 22 23 24 24 24 25 25 26 26 26 26 26 26 27 27 28 29 31 32 32 31 31 32 34 36 38 38 34 29 26 24 23 24 25 26 26 26 26 26 27 27 26 26 26 25 25 25 23 19 16 14 12 12 12 13 13 13 13 13 13 12 11 11 10 10 11 14
11 12 12 11 11 12 12 13 14 14 15 15 15 16 16 18 19 20 21 23 24 24 25 25 25 25 26 26 26 26 26 26 27 28 29 31 31 31 31 31 32 34 37 40 39 34 29 26 22 21 22 22 23 24 24 25 24 25 25 24 25 25 24 23 23 23 23 21 17 13 12 11 11 12 11 11 11 10 10 10 9 8 8 8 9
11 12 12 11 11 12 12 13 13 14 14 14 14 15 16 17 19 20 22 23 24 24 25 25 25 26 26 26 26 26 26 26 27 28 29 30 31 31 31 32 33 35 39 41 39 33 28 25 22 20 21 20 20 20 20 20 19 21 22 22 23 22 21 21 21 24 26 24 21 18 15 13 12 11 7 4 6 7 7 7 6 5 6 6 8
11 11 11 11 11 11 12 12 13 13 13 13 14 14 16 17 19 21 23 24 24 25 25 25 26 26 26 26 26 26 26 26 27 28 29 30 30 31 31 32 34 38 41 42 39 34 29 26 22 20 20 20 19 17 17 15 15 18 20 22 22 19 21 22 22 24 25 24 22 21 19 15 10 8 7 3 1 2 2 3 4 4 5 6 8
10 11 11 11 10 11 11 12 13 13 13 13 14 15 16 17 19 22 24 25 25 25 26 26 26 26 26 26 25 26 26 26 26 28 29 29 30 31 31 33 36 40 43 43 40 35 30 26 23 21 20 20 19 16 15 13 14 17 21 24 23 20 22 22 21 21 24 26 25 24 24 18 9 5 5 4 6 7 6 7 8 6 7 9 9
10 11 11 11 10 10 11 11 12 13 13 14 14 15 17 18 20 22 24 25 25 26 26 26 26 26 26 25 25 25 25 25 26 27 28 29 30 31 31 33 37 41 43 43 40 35 31 27 25 23 22 21 18 16 16 16 18 21 24 26 24 21 20 19 18 18 22 27 26 24 24 20 11 4 3 4 8 11 11 12 11 9 10 12 11
9 10 11 10 10 10 10 11 12 12 13 14 15 16 17 18 20 21 23 23 24 25 26 26 26 26 25 24 24 25 25 25 26 27 28 29 30 31 31 34 37 39 41 42 40 37 34 31 29 26 24 23 20 19 19 20 21 23 25 27 23 19 17 17 17 16 21 26 23 21 21 15 8 3 1 3 9 14 15 16 15 12 11 13 14
8 9 10 10 10 10 10 11 12 12 13 13 14 15 16 18 19 21 23 23 24 25 26 26 26 25 24 24 24 25 25 25 26 27 27 28 29 30 31 33 36 37 39 41 41 41 39 37 34 30 25 23 21 20 21 21 22 23 25 25 20 17 16 17 18 18 20 21 19 21 23 15 10 8 6 9 14 16 18 19 17 16 14 13 16
7 9 9 10 10 10 10 11 12 12 13 13 14 15 16 18 20 21 23 24 25 25 26 27 26 25 24 24 24 25 25 25 25 26 27 27 28 29 30 31 34 36 38 40 41 41 40 40 38 34 29 26 25 23 21 21 23 23 24 22 17 15 14 16 20 20 19 19 17 20 25 20 14 14 12 13 15 16 20 20 15 14 14 14 16
7 8 9 10 10 10 10 11 11 12 12 13 14 15 16 18 20 21 23 24 25 25 26 27 26 25 24 24 24 25 25 24 25 26 26 27 28 28 29 30 32 34 36 37 39 40 40 40 41 40 36 32 30 27 24 23 23 23 22 19 16 14 13 15 20 22 22 21 18 19 22 20 17 17 14 14 17 17 18 19 16 14 13 14 15
7 8 9 10 10 10 10 10 11 12 12 13 14 15 16 17 19 21 22 24 24 25 26 27 25 24 24 24 24 24 25 24 24 25 26 26 27 27 28 29 30 31 33 35 37 39 39 39 41 43 42 38 33 29 27 25 24 23 20 17 15 15 15 16 19 20 22 22 21 20 20 18 17 18 17 16 20 21 19 20 19 17 17 16 17
8 8 8 10 10 9 10 10 11 12 12 13 13 15 16 17 19 20 22 23 24 25 26 26 25 24 24 24 23 24 24 24 24 25 25 25 26 27 27 28 28 29 30 32 35 37 37 37 38 40 42 42 39 35 31 27 25 23 21 18 17 17 17 19 19 19 19 20 21 21 22 21 18 17 16 15 16 21 24 22 20 19 19 18 18
Wind_Direction
227 230 238 242 245 256 264 273 281 291 300 302 304 308 312 316 318 320 320 320 321 322 323 323 322 320 318 316 316 314 312 309 306 303 300 298 295 292 290 288 286 284 282 279 277 273 270 267 266 268 266 264 265 269 270 268 266 264 263 264 263 261 261 261 262 263 262 260 259 258 256 255 254 255 254 253 253 252 252 251 251 250 249 248 248
231 228 240 251 259 270 276 284 289 296 302 305 310 314 317 322 325 325 324 325 324 324 325 324 323 322 320 318 316 313 311 308 305 303 300 298 296 295 293 291 289 287 284 283 281 279 277 274 272 272 270 268 268 268 269 269 267 265 265 264 263 263 262 261 260 260 260 258 258 258 257 256 254 254 254 253 253 253 252 252 252 252 251 250 249
232 242 257 268 278 283 284 289 295 305 309 313 317 319 325 329 328 327 326 325 325 324 323 322 322 321 321 317 314 311 309 307 305 304 302 301 300 299 298 295 292 289 287 285 284 284 283 280 280 278 275 273 273 272 271 271 268 267 267 264 263 263 262 260 258 259 259 258 257 257 256 255 254 254 254 254 254 254 254 254 253 252 251 250 251
221 249 274 282 284 283 285 295 303 313 315 320 323 327 332 330 329 327 327 325 325 323 321 319 319 319 317 315 313 311 309 308 307 306 306 305 304 303 301 299 296 293 290 288 286 285 284 283 283 282 279 277 276 275 274 273 271 271 270 267 265 264 263 261 259 258 258 258 257 257 256 255 255 255 256 255 255 254 253 253 253 253 252 250 251
191 235 278 283 280 285 290 294 304 315 319 326 329 332 331 329 330 328 327 326 323 320 319 318 317 317 316 315 313 312 311 311 309 307 307 306 305 304 302 301 299 297 295 293 290 289 288 287 286 284 282 280 279 278 277 276 274 274 273 271 269 267 266 264 263 261 259 259 257 256 256 255 255 255 255 255 255 255 254 254 253 254 254 252 251
156 226 271 276 278 282 282 289 308 322 326 332 332 333 332 331 330 327 327 324 322 319 318 317 319 319 317 316 314 314 313 313 311 309 310 309 307 306 305 303 301 299 298 295 293 292 291 290 289 287 286 284 283 282 281 280 278 276 275 273 270 269 268 266 265 264 262 261 259 258 257 256 255 254 254 254 254 254 254 255 255 255 256 254 251
155 228 274 272 274 273 280 307 327 332 334 337 337 336 334 332 329 327 326 323 321 318 317 320 322 320 317 316 316 316 315 314 313 315 316 313 309 307 307 305 304 302 298 295 294 292 292 291 290 289 288 286 285 284 283 281 279 277 276 274 273 271 270 269 267 265 263 262 261 261 261 259 258 256 255 255 255 254 254 254 254 254 255 255 254
149 158 298 287 284 286 310 342 341 340 340 338 336 335 334 330 328 327 325 322 320 318 321 325 324 320 318 318 318 316 315 315 316 318 317 313 311 310 311 308 305 302 299 298 297 296 295 295 293 293 291 290 288 286 285 283 281 279 278 277 275 274 273 271 269 267 265 264 264 263 263 262 261 259 257 256 256 256 255 255 254 253 253 255 256
98 67 3 317 312 330 344 354 351 346 344 340 335 335 336 331 329 326 324 322 321 321 326 327 323 320 317 318 317 314 314 314 317 318 314 312 315 316 315 311 309 306 304 304 303 303 303 302 300 298 297 295 294 292 291 289 286 283 281 279 278 276 274 272 271 269 267 266 266 265 264 263 262 261 259 258 257 257 256 256 255 254 253 254 255
82 67 38 354 357 3 354 353 355 350 344 341 338 336 335 330 326 324 323 323 322 324 327 325 319 316 315 315 314 313 313 314 316 314 311 315 319 319 317 315 316 313 312 312 311 312 310 307 305 303 302 301 300 298 296 294 291 288 285 284 282 280 278 276 274 271 269 267 266 265 264 263 262 261 260 258 257 257 257 257 257 256 254 253 254
91 67 34 23 16 5 352 353 355 351 342 339 336 331 328 324 324 323 324 325 323 324 324 319 314 313 313 315 316 316 314 314 315 312 313 321 323 321 321 321 320 317 317 315 314 315 312 309 308 307 307 305 302 300 299 296 293 291 288 286 284 283 281 279 276 274 272 270 268 266 264 263 262 262 260 258 257 257 257 258 258 258 256 255 254
73 48 24 24 18 354 348 355 354 349 340 338 332 325 322 322 325 326 325 325 323 322 319 315 312 311 314 319 320 318 316 317 319 317 318 324 324 322 322 322 319 318 318 315 313 312 310 310 308 308 307 303 300 298 298 295 292 290 288 286 285 284 281 278 276 274 273 272 271 269 266 263 261 261 259 258 257 256 256 256 257 258 258 257 255
57 36 16 10 6 349 350 353 349 345 337 335 328 322 322 324 325 322 321 321 320 319 317 315 314 315 321 325 323 321 323 326 326 325 324 324 322 320 320 319 317 316 315 313 310 308 307 306 303 302 300 296 295 295 293 290 290 289 289 288 287 284 282 280 277 276 275 274 272 271 269 265 262 260 258 257 256 256 256 255 255 256 256 256 256
55 27 10 353 350 348 347 343 338 336 333 329 322 321 321 323 324 319 319 321 321 322 320 320 321 325 330 331 328 328 329 329 328 326 325 322 320 318 318 317 314 312 311 309 307 305 304 302 301 299 296 295 295 295 291 289 290 291 290 289 287 285 284 282 281 281 279 277 274 272 270 268 265 261 258 256 255 255 255 255 255 255 255 254 255
35 13 358 347 346 343 339 334 330 328 329 323 317 319 319 322 325 323 323 325 326 326 324 325 328 334 336 334 332 331 329 328 326 324 323 321 319 319 318 316 313 312 311 309 307 306 304 302 302 300 298 296 295 293 292 291 290 290 288 286 285 284 283 282 282 282 281 278 276 273 271 268 266 263 260 257 255 253 253 253 254 254 254 254 254
20 1 349 346 342 338 335 331 327 327 327 321 319 321 321 325 331 332 330 329 329 327 325 330 334 338 340 337 333 331 329 326 324 323 323 321 319 319 318 316 313 312 312 311 309 308 306 304 303 301 299 297 295 294 292 291 289 287 286 284 283 282 281 280 280 279 278 276 275 273 271 269 266 264 261 259 256 254 252 251 252 253 253 254 254
10 358 347 341 337 334 331 329 327 329 328 323 322 324 325 329 335 337 333 331 330 327 328 334 338 339 339 336 332 328 327 326 324 325 324 321 320 319 318 316 313 312 312 311 309 308 307 306 304 302 300 299 297 296 294 292 290 289 287 286 284 283 282 281 279 278 277 275 273 272 271 269 267 265 262 260 258 255 253 251 250 250 251 251 252
359 351 345 339 335 332 330 329 329 330 329 325 323 324 326 331 334 335 333 334 332 330 333 338 340 338 336 333 329 328 329 328 327 326 324 321 319 318 317 315 313 313 313 311 309 308 307 305 304 303 301 300 298 297 295 293 291 290 288 287 286 285 283 282 281 279 278 275 273 271 269 268 266 265 263 260 258 255 253 252 251 250 249 249 250
352 348 343 338 333 331 331 331 333 333 330 326 326 326 329 332 331 331 334 338 337 337 339 341 340 336 334 333 331 333 332 329 327 325 322 320 319 319 317 316 314 313 313 311 309 308 307 306 305 304 302 301 299 297 295 293 291 290 288 287 286 285 284 282 281 280 278 276 274 272 270 267 265 264 262 261 259 255 252 251 250 249 249 248 248
350 346 340 335 333 334 334 336 337 335 332 328 328 329 330 331 330 334 340 343 344 342 342 343 342 339 336 335 334 334 331 327 325 323 322 321 320 319 318 316 315 314 314 312 310 310 309 308 307 306 304 302 301 299 297 295 294 292 290 288 287 286 284 283 281 279 278 276 274 273 271 268 266 263 261 260 259 257 254 251 249 248 248 247 247
346 342 338 334 334 337 340 341 344 343 339 336 334 333 332 332 335 342 347 348 348 346 345 346 344 340 337 335 333 331 328 325 324 324 323 322 321 320 319 318 317 315 314 313 312 312 311 310 309 307 306 304 302 301 300 298 297 295 293 291 290 288 287 285 283 280 278 275 274 272 270 268 267 265 262 260 259 258 256 253 249 248 247 246 247
344 342 338 333 333 340 343 342 346 345 343 344 340 338 340 345 349 352 352 351 350 348 347 345 342 339 335 333 331 329 327 325 325 324 323 322 321 320 319 319 317 316 315 315 314 313 312 310 309 307 306 305 303 302 301 300 298 297 295 293 292 291 289 287 284 281 278 276 274 272 269 267 266 265 264 262 260 258 257 255 252 249 248 245 245
344 342 337 330 331 338 343 343 343 342 345 348 344 346 355 360 360 358 356 353 350 348 347 343 339 336 334 333 331 329 328 326 325 324 323 322 321 321 320 319 318 317 316 315 314 313 312 311 309 308 307 306 305 304 303 301 299 298 296 294 293 291 289 286 284 281 279 277 275 273 271 269 267 266 265 263 261 260 258 256 253 251 249 246 244
339 337 333 326 330 338 343 344 344 347 349 350 349 357 6 5 3 360 357 353 350 348 345 341 337 336 336 333 330 328 327 326 325 324 323 323 322 321 320 320 319 317 316 315 315 314 314 313 312 311 310 309 308 306 305 303 301 299 296 295 293 291 288 285 284 282 281 279 278 276 274 272 271 268 267 265 263 261 259 257 254 251 251 247 244
339 340 336 330 338 344 345 347 349 352 353 354 359 7 9 5 1 359 356 352 348 347 344 339 337 338 336 331 328 327 326 326 326 325 325 324 323 322 321 321 319 318 317 317 317 316 315 315 314 313 311 310 308 307 305 303 301 299 297 295 293 292 289 287 285 284 283 282 281 279 276 274 273 271 269 267 265 263 259 258 255 252 251 248 244
348 347 345 341 344 347 347 350 352 356 359 359 3 10 8 2 0 358 354 350 347 346 343 339 337 336 332 329 329 328 328 328 327 327 327 326 325 324 324 322 320 319 319 319 319 318 318 317 316 314 313 311 310 310 309 306 302 299 297 295 293 292 291 290 289 288 286 283 281 279 277 275 273 272 271 269 268 265 261 258 256 254 250 247 243
353 352 351 347 348 349 349 352 356 2 5 2 5 9 5 1 359 356 352 349 347 345 342 339 335 334 331 331 331 330 330 330 330 330 330 329 328 327 325 324 322 321 321 322 322 322 322 320 319 318 317 316 316 316 314 310 306 302 298 296 294 293 293 293 293 290 287 284 281 278 277 275 273 272 271 269 268 266 263 259 258 257 250 245 240
354 353 351 350 352 352 352 357 3 7 7 5 6 6 3 359 356 354 353 350 347 344 342 339 334 333 333 334 334 333 333 334 334 334 333 331 330 328 327 326 325 324 324 326 327 326 325 324 323 324 324 323 322 321 318 315 312 309 306 303 300 298 297 295 293 289 286 283 280 278 276 274 273 271 271 270 268 266 265 261 260 260 253 243 238
355 353 352 352 356 357 0 6 9 10 10 8 6 3 360 356 355 355 353 349 347 345 342 336 332 334 338 339 337 337 338 338 337 336 335 333 331 330 329 328 328 328 329 329 329 330 330 330 330 330 329 327 325 323 321 320 318 316 313 310 306 303 299 295 292 288 285 283 281 279 276 274 272 271 270 269 268 266 265 264 263 264 258 246 239
357 356 356 357 1 3 7 12 14 15 12 8 4 360 357 356 357 354 351 350 348 344 338 333 335 342 345 342 339 341 342 340 339 338 336 334 333 332 331 332 332 332 332 332 334 337 337 336 335 333 331 328 326 323 322 322 321 319 317 314 309 304 299 296 293 289 286 284 281 279 276 273 272 271 271 270 269 266 265 266 267 266 261 253 245
359 0 2 4 7 8 10 16 19 17 11 6 2 359 359 359 355 352 352 351 345 339 336 337 343 349 347 343 342 343 342 341 341 340 337 336 335 335 335 336 337 336 335 338 342 344 341 337 336 333 330 327 324 323 323 325 325 323 320 316 311 307 304 301 298 294 290 286 282 280 277 275 273 272 272 271 270 268 263 262 264 262 258 258 252
3 5 8 9 11 11 14 19 21 17 9 4 2 2 1 357 354 354 353 347 341 338 339 344 351 351 347 345 345 345 344 344 343 340 338 338 338 339 340 340 340 340 342 346 347 345 340 336 335 332 328 325 325 327 330 331 330 326 321 317 314 311 308 305 302 298 294 289 285 282 280 277 276 275 275 274 271 268 260 253 254 254 252 253 255
6 10 13 14 15 15 17 19 19 15 7 4 4 3 359 356 356 354 350 344 342 343 345 351 353 351 348 347 347 346 346 345 343 341 341 341 342 344 344 342 342 345 348 349 347 344 339 336 336 333 330 330 333 339 339 333 330 327 323 320 318 314 310 307 305 303 300 296 292 289 286 283 280 278 278 276 272 267 260 253 249 245 243 243 246
10 15 17 17 17 16 17 17 15 12 8 6 4 0 359 359 357 353 348 346 347 349 352 354 354 351 350 349 348 348 346 345 344 343 343 344 346 346 345 346 348 351 350 349 348 346 341 338 340 341 340 341 344 345 341 335 333 333 329 325 324 321 317 313 310 310 309 307 303 298 295 292 287 282 278 275 271 265 259 255 250 243 235 234 238
12 17 19 18 17 15 16 15 11 12 11 7 3 1 1 359 355 352 350 350 352 353 355 356 354 352 351 350 349 348 346 345 345 345 345 347 349 348 348 352 354 353 350 350 349 346 344 343 344 346 348 349 349 346 343 344 345 343 339 334 331 328 325 322 319 316 313 310 307 303 299 297 293 287 279 272 266 261 257 252 249 245 235 231 233
12 19 21 20 18 14 15 14 10 11 11 7 4 3 1 358 356 355 353 353 355 356 356 356 355 353 352 350 349 348 347 347 347 347 348 350 350 350 354 357 356 353 352 351 349 347 348 348 346 346 349 352 353 351 352 355 354 350 346 344 344 342 340 336 330 323 316 310 305 304 300 295 293 291 285 276 266 258 256 251 247 246 239 231 229
13 19 22 20 17 15 16 12 7 8 8 7 5 3 1 358 357 356 355 356 357 356 356 357 356 354 353 351 349 348 348 349 349 350 351 352 352 355 359 359 356 355 354 352 351 351 351 350 348 346 347 354 357 357 360 0 356 354 354 356 356 354 352 349 343 335 327 317 310 307 302 299 296 293 289 280 270 262 254 252 248 246 242 231 226
15 18 20 18 16 17 18 11 5 5 7 6 4 2 0 359 358 357 357 358 357 357 357 357 356 355 354 351 350 349 350 351 352 353 354 354 356 1 2 359 357 356 354 353 353 355 354 352 350 348 348 354 359 1 4 2 357 358 2 2 359 355 353 351 351 350 343 334 324 315 308 305 303 297 289 280 269 262 257 253 250 247 243 230 225
15 16 18 17 15 17 17 10 4 5 7 6 3 1 360 358 359 359 358 358 358 358 358 358 357 356 354 352 351 351 352 354 355 356 356 357 1 4 3 0 358 356 355 356 356 358 359 356 352 350 350 354 359 3 5 3 359 3 6 4 359 353 349 348 350 354 353 346 332 319 316 313 308 299 287 279 267 258 257 256 253 250 243 228 223
14 15 17 15 15 18 15 8 6 5 5 4 1 360 359 359 360 359 358 358 359 359 358 359 358 356 354 353 354 353 354 356 358 358 358 1 5 6 4 2 359 357 358 359 360 0 1 358 354 353 354 355 358 3 5 3 3 6 7 4 357 350 347 349 351 359 10 3 345 333 330 323 316 304 285 273 267 258 254 255 256 252 241 231 224
14 14 13 13 14 16 12 7 6 5 5 2 358 357 357 358 359 357 357 359 0 360 359 360 358 356 355 355 356 355 356 359 360 360 1 4 7 7 5 4 2 1 2 2 3 3 2 1 358 356 358 357 0 5 6 6 5 7 8 4 359 353 352 356 1 13 23 20 13 12 2 348 343 329 297 268 266 269 262 254 253 249 240 233 222
14 12 10 11 13 14 11 6 5 4 4 360 355 354 355 358 358 356 359 2 1 360 360 0 358 356 356 357 357 357 359 1 1 1 3 7 9 8 7 5 5 7 7 6 5 7 5 5 5 3 1 1 3 9 10 9 10 11 9 5 2 358 2 13 20 21 21 21 22 22 13 1 358 352 331 275 259 268 268 248 229 222 220 215 210
12 9 8 9 12 14 10 5 3 1 1 358 353 353 355 358 358 357 0 3 2 0 1 1 358 357 358 359 358 358 0 2 3 3 6 9 9 10 9 7 9 11 11 9 9 11 12 10 10 7 5 3 3 10 15 13 14 14 10 9 7 6 15 23 25 21 16 16 21 22 13 6 10 11 3 8 220 215 207 188 174 162 163 173 189
10 7 7 8 11 14 9 5 2 358 357 357 353 352 355 359 359 358 1 3 2 1 2 1 358 357 359 360 359 360 2 3 4 5 8 10 11 12 12 11 14 15 13 13 13 15 16 14 13 8 4 3 0 6 18 19 15 13 12 12 10 14 24 25 23 20 14 13 17 20 14 10 20 23 8 45 105 116 117 126 124 123 139 148 162
8 7 6 6 10 12 7 4 1 356 355 356 353 352 355 359 360 360 2 3 1 1 2 360 357 358 0 0 360 2 4 5 6 7 10 12 13 14 14 16 20 18 17 19 20 19 18 15 14 10 6 5 2 6 19 22 17 15 14 14 15 22 29 25 19 17 17 16 15 14 12 12 20 38 44 65 109 120 117 115 115 123 137 137 140
7 8 6 4 8 11 7 3 1 356 354 355 353 352 354 358 359 360 3 2 1 2 1 359 357 360 2 1 1 4 5 6 7 9 11 13 15 16 16 20 23 21 22 24 25 25 24 20 17 14 10 8 8 15 23 22 18 17 16 14 18 27 30 26 24 24 25 23 20 17 17 21 30 45 92 103 115 118 108 104 112 120 126 132 137
8 11 7 4 7 9 6 3 1 355 353 355 353 351 353 356 357 0 3 3 2 2 360 358 359 2 4 3 3 5 6 8 9 10 12 14 16 18 18 23 25 24 25 27 27 28 28 27 24 21 18 16 16 23 26 23 18 18 17 16 21 33 38 36 35 37 34 30 33 34 29 41 80 92 111 115 106 110 110 107 111 114 118 131 139
9 13 9 5 7 8 6 3 359 354 352 355 354 351 353 355 357 1 3 3 2 2 359 359 1 3 4 3 4 6 7 9 10 11 13 14 18 19 20 25 27 25 26 28 28 28 29 30 28 26 28 31 31 31 28 23 19 17 16 16 24 40 46 43 39 39 40 36 38 37 30 36 65 82 97 102 94 106 116 115 113 114 124 130 135
10 12 10 7 6 5 6 3 358 352 351 356 354 351 352 355 358 1 2 3 2 1 359 0 2 3 5 5 5 7 8 10 10 11 13 14 18 21 22 25 28 27 27 27 27 28 29 31 31 29 32 37 40 38 34 28 21 18 18 20 31 42 43 39 37 36 37 36 35 35 31 27 37 58 76 97 107 112 109 111 118 121 129 129 133
11 10 9 8 5 3 4 1 356 350 350 355 355 351 351 355 359 1 1 2 2 0 359 1 3 4 5 6 6 7 8 10 10 11 12 14 18 22 23 26 28 28 27 26 26 26 28 32 34 33 33 37 42 42 39 34 29 25 24 29 40 45 39 34 33 31 29 29 30 33 33 27 27 39 53 79 107 117 109 108 117 122 131 131 136
12 7 7 8 4 3 4 360 354 349 348 354 355 351 351 355 360 1 1 2 2 0 0 2 4 5 6 6 7 8 9 10 10 11 12 14 18 22 24 27 28 27 26 25 24 25 27 32 37 38 37 38 41 44 42 38 38 37 34 35 39 38 33 29 27 25 22 24 28 31 31 30 27 29 41 58 85 110 116 114 116 120 130 136 142
Height
3124 3124 3124 3124 3125 3125 3125 3125 3124 3124 3123 3123 3122 3122 3122 3121 3120 3120 3119 3119 3118 3118 3117 3116 3116 3115 3114 3114 3113 3112 3112 3111 3111 3110 3109 3109 3108 3108 3107 3107 3106 3106 3105 3104 3104 3103 3102 3102 3101 3101 3100 3100 3100 3099 3098 3098 3098 3098 3097 3097 3097 3097 3097 3097 3096 3096 3096 3096 3096 3096 3096 3096 3095 3095 3095 3095 3095 3096 3096 3097 3097 3097 3098 3098 3099
3124 3124 3124 3125 3125 3125 3125 3124 3124 3124 3123 3122 3122 3122 3121 3121 3120 3119 3119 3118 3118 3117 3117 3116 3115 3115 3114 3113 3112 3112 3111 3110 3110 3109 3108 3108 3107 3107 3106 3106 3105 3105 3104 3103 3102 3102 3101 3101 3100 3100 3099 3098 3098 3097 3097 3096 3096 3096 3095 3095 3095 3095 3095 3095 3094 3094 3094 3094 3094 3094 3093 3093 3093 3093 3093 3093 3093 3093 3094 3094 3094 3094 3095 3096 3096
3124 3124 3124 3125 3125 3125 3124 3124 3123 3123 3122 3122 3122 3121 3121 3120 3120 3119 3119 3118 3118 3117 3116 3116 3115 3114 3113 3113 3112 3111 3110 3110 3109 3108 3108 3107 3107 3106 3106 3105 3104 3104 3103 3102 3101 3101 3100 3099 3099 3098 3097 3097 3096 3096 3095 3095 3094 3094 3093 3093 3093 3093 3093 3092 3092 3092 3092 3092 3092 3091 3091 3091 3091 3091 3091 3091 3091 3091 3091 3091 3091 3091 3092 3093 3093
3124 3124 3124 3124 3124 3124 3124 3123 3123 3122 3122 3122 3121 3121 3120 3120 3120 3119 3119 3118 3117 3117 3116 3115 3115 3114 3113 3112 3112 3111 3110 3109 3108 3108 3107 3106 3106 3105 3105 3104 3103 3103 3102 3101 3100 3099 3099 3098 3097 3096 3096 3095 3095 3094 3093 3093 3092 3092 3091 3091 3091 3090 3090 3090 3090 3090 3090 3090 3089 3089 3089 3089 3088 3088 3089 3089 3089 3088 3088 3088 3088 3088 3089 3090 3091
3124 3124 3124 3124 3124 3124 3123 3123 3123 3122 3122 3122 3121 3121 3120 3120 3120 3119 3118 3118 3117 3117 3116 3115 3114 3114 3113 3112 3111 3110 3109 3108 3108 3107 3106 3106 3105 3104 3104 3103 3102 3101 3101 3100 3099 3098 3097 3097 3096 3095 3094 3094 3093 3092 3091 3091 3091 3090 3089 3089 3089 3088 3088 3088 3088 3087 3087 3087 3087 3086 3086 3086 3086 3086 3086 3086 3086 3086 3086 3086 3086 3086 3086 3087 3088
3124 3124 3124 3124 3124 3124 3124 3123 3123 3122 3122 3122 3121 3121 3120 3120 3119 3119 3118 3118 3117 3116 3115 3115 3114 3113 3113 3112 3111 3110 3109 3108 3107 3106 3105 3105 3104 3103 3102 3102 3101 3100 3100 3099 3098 3097 3096 3095 3095 3094 3093 3092 3091 3090 3090 3089 3089 3088 3087 3087 3087 3086 3086 3086 3085 3085 3085 3084 3084 3083 3083 3084 3084 3084 3084 3084 3083 3083 3083 3083 3084 3084 3084 3085 3084
3124 3124 3124 3124 3124 3124 3124 3123 3123 3122 3122 3122 3121 3121 3120 3120 3119 3119 3118 3117 3117 3116 3115 3115 3114 3113 3112 3111 3110 3109 3108 3107 3106 3105 3104 3104 3103 3102 3101 3101 3100 3099 3098 3097 3096 3096 3095 3094 3093 3092 3091 3090 3089 3089 3088 3087 3087 3086 3085 3085 3084 3084 3083 3083 3083 3083 3082 3082 3081 3081 3081 3081 3081 3081 3081 3081 3081 3081 3081 3081 3081 3082 3082 3082 3081
3124 3124 3124 3124 3124 3124 3124 3123 3123 3123 3122 3122 3122 3121 3121 3120 3119 3119 3118 3117 3116 3115 3115 3115 3114 3112 3111 3111 3110 3109 3107 3106 3105 3104 3103 3102 3102 3101 3100 3100 3099 3098 3097 3096 3095 3094 3093 3092 3091 3090 3089 3088 3088 3087 3086 3085 3085 3084 3083 3083 3082 3082 3081 3081 3080 3080 3079 3079 3079 3078 3078 3078 3078 3078 3079 3079 3078 3078 3078 3078 3078 3079 3079 3079 3078
3125 3125 3125 3125 3125 3125 3124 3124 3123 3123 3123 3122 3122 3121 3121 3120 3119 3119 3118 3117 3116 3115 3115 3114 3113 3112 3111 3110 3109 3108 3107 3106 3105 3104 3102 3101 3100 3100 3099 3098 3097 3096 3095 3094 3093 3092 3092 3091 3090 3089 3088 3087 3086 3085 3084 3083 3082 3082 3081 3080 3079 3079 3078 3078 3077 3077 3077 3076 3076 3076 3076 3076 3075 3075 3076 3076 3076 3076 3075 3075 3075 3076 3076 3076 3076
3125 3125 3125 3125 3125 3125 3125 3124 3124 3124 3123 3123 3122 3121 3121 3120 3119 3118 3117 3117 3116 3115 3114 3113 3112 3111 3110 3109 3108 3107 3106 3105 3104 3103 3101 3100 3100 3099 3098 3097 3096 3095 3094 3093 3092 3091 3090 3089 3088 3087 3086 3085 3084 3083 3082 3081 3081 3080 3079 3078 3077 3076 3075 3075 3074 3074 3073 3073 3073 3072 3072 3072 3072 3072 3073 3073 3073 3073 3073 3073 3072 3073 3074 3074 3074
3125 3125 3126 3126 3126 3125 3125 3125 3125 3124 3124 3123 3122 3121 3121 3120 3119 3118 3117 3116 3115 3115 3114 3113 3111 3110 3109 3108 3108 3107 3106 3104 3103 3102 3100 3100 3099 3098 3097 3096 3095 3093 3092 3091 3090 3089 3088 3087 3086 3085 3084 3083 3082 3081 3080 3079 3078 3077 3077 3076 3075 3074 3073 3072 3072 3071 3070 3070 3069 3069 3069 3069 3069 3069 3070 3070 3070 3070 3070 3070 3070 3070 3070 3071 3071
3125 3125 3126 3126 3126 3126 3126 3126 3125 3124 3124 3123 3122 3121 3120 3120 3119 3118 3117 3116 3115 3114 3113 3112 3111 3110 3109 3108 3107 3106 3105 3103 3102 3101 3100 3099 3098 3096 3095 3094 3093 3092 3091 3090 3089 3088 3087 3086 3085 3084 3082 3081 3080 3079 3078 3077 3076 3075 3074 3073 3072 3071 3071 3070 3069 3068 3067 3067 3066 3066 3066 3066 3065 3066 3067 3067 3066 3067 3067 3067 3067 3067 3067 3067 3068
3126 3126 3126 3126 3126 3126 3126 3125 3125 3124 3124 3123 3122 3121 3120 3119 3119 3118 3116 3116 3114 3114 3113 3111 3110 3109 3108 3107 3106 3105 3104 3103 3102 3101 3100 3098 3097 3096 3095 3094 3092 3091 3090 3089 3087 3086 3085 3084 3083 3082 3080 3079 3078 3077 3076 3074 3073 3072 3071 3070 3069 3068 3067 3066 3065 3065 3065 3064 3063 3063 3062 3062 3062 3062 3063 3063 3063 3063 3063 3063 3063 3063 3064 3064 3065
3126 3126 3126 3127 3126 3126 3125 3125 3124 3124 3124 3122 3121 3121 3120 3119 3119 3117 3116 3115 3114 3113 3112 3111 3109 3108 3108 3107 3105 3104 3103 3102 3101 3100 3099 3098 3096 3095 3094 3092 3091 3089 3088 3087 3085 3084 3083 3081 3080 3079 3078 3076 3075 3074 3073 3072 3070 3069 3068 3067 3066 3065 3064 3063 3062 3062 3062 3061 3061 3060 3059 3059 3059 3059 3059 3059 3059 3059 3060 3060 3060 3060 3061 3061 3062
3127 3127 3127 3127 3126 3126 3125 3125 3124 3124 3124 3122 3121 3121 3120 3119 3118 3117 3116 3114 3113 3112 3111 3110 3109 3108 3107 3106 3105 3104 3103 3102 3100 3099 3098 3097 3095 3094 3093 3091 3089 3088 3086 3085 3083 3082 3080 3079 3078 3076 3075 3074 3072 3071 3070 3069 3067 3066 3065 3064 3062 3061 3060 3059 3058 3058 3058 3058 3057 3057 3056 3056 3056 3055 3055 3055 3055 3055 3056 3056 3056 3057 3057 3058 3059
3127 3127 3127 3127 3127 3126 3126 3125 3125 3124 3123 3122 3121 3120 3119 3118 3117 3116 3115 3114 3113 3112 3110 3109 3108 3108 3107 3106 3105 3104 3102 3101 3100 3099 3097 3096 3094 3092 3091 3089 3087 3086 3084 3083 3081 3079 3078 3076 3075 3074 3072 3071 3069 3068 3067 3065 3064 3062 3061 3059 3058 3057 3056 3055 3055 3054 3054 3053 3053 3052 3052 3052 3052 3052 3051 3051 3051 3051 3052 3052 3053 3053 3054 3054 3055
3128 3128 3127 3127 3127 3126 3126 3125 3124 3124 3123 3122 3121 3119 3118 3117 3116 3115 3114 3113 3112 3111 3110 3109 3108 3107 3107 3106 3104 3103 3102 3101 3099 3097 3096 3094 3093 3091 3089 3087 3085 3084 3082 3080 3079 3077 3075 3074 3072 3071 3069 3068 3066 3065 3063 3062 3060 3059 3057 3055 3054 3053 3052 3051 3051 3050 3049 3049 3048 3048 3048 3047 3047 3047 3047 3047 3047 3047 3048 3048 3048 3049 3050 3050 3052
3128 3128 3127 3127 3126 3126 3125 3125 3124 3123 3122 3121 3120 3119 3118 3117 3116 3115 3114 3113 3112 3111 3110 3109 3108 3107 3106 3105 3104 3102 3101 3100 3098 3096 3094 3092 3091 3089 3087 3085 3083 3081 3080 3078 3077 3075 3073 3071 3070 3068 3067 3065 3064 3062 3060 3058 3057 3055 3053 3051 3050 3049 3048 3047 3046 3046 3045 3044 3044 3043 3043 3043 3042 3042 3042 3042 3043 3043 3044 3044 3044 3045 3045 3046 3048
3128 3128 3127 3127 3126 3125 3125 3124 3124 3123 3122 3121 3120 3119 3118 3117 3116 3114 3114 3113 3112 3111 3110 3109 3108 3107 3106 3105 3103 3101 3100 3098 3096 3095 3093 3091 3089 3088 3085 3084 3081 3079 3078 3076 3074 3073 3071 3069 3067 3066 3064 3062 3060 3059 3057 3055 3053 3051 3049 3047 3046 3044 3043 3042 3041 3041 3040 3039 3039 3038 3038 3038 3037 3037 3037 3037 3038 3038 3039 3039 3040 3040 3041 3042 3043
3128 3127 3127 3126 3126 3125 3124 3124 3123 3122 3122 3121 3119 3118 3118 3117 3115 3114 3114 3113 3112 3111 3110 3109 3108 3107 3105 3103 3102 3100 3099 3097 3095 3093 3091 3089 3087 3086 3084 3082 3080 3077 3076 3074 3072 3070 3069 3067 3064 3063 3060 3058 3056 3054 3052 3050 3048 3046 3044 3042 3041 3040 3038 3037 3036 3035 3034 3034 3033 3033 3033 3032 3032 3032 3032 3033 3033 3033 3034 3034 3034 3035 3036 3038 3039
3128 3127 3126 3126 3125 3124 3124 3123 3122 3122 3121 3120 3119 3118 3117 3116 3115 3114 3114 3113 3112 3111 3110 3109 3107 3106 3104 3103 3101 3099 3098 3096 3094 3092 3090 3088 3085 3083 3081 3080 3078 3075 3074 3072 3070 3068 3066 3064 3062 3059 3057 3054 3052 3050 3048 3046 3043 3041 3039 3037 3036 3035 3033 3032 3031 3030 3029 3028 3028 3027 3027 3026 3026 3026 3027 3027 3028 3028 3029 3029 3030 3030 3031 3033 3035
3127 3127 3126 3125 3124 3124 3123 3122 3122 3121 3120 3120 3119 3118 3117 3116 3115 3115 3114 3113 3112 3111 3110 3108 3107 3105 3104 3102 3100 3098 3096 3094 3093 3091 3089 3086 3084 3082 3080 3078 3076 3074 3072 3070 3068 3066 3064 3061 3059 3056 3053 3051 3048 3046 3044 3042 3039 3037 3034 3032 3031 3030 3029 3027 3026 3025 3024 3023 3023 3023 3022 3021 3021 3021 3021 3022 3023 3023 3024 3025 3026 3026 3027 3029 3031
3127 3126 3126 3125 3124 3123 3123 3122 3122 3121 3120 3119 3118 3117 3117 3116 3116 3115 3114 3113 3112 3111 3109 3108 3106 3105 3103 3101 3099 3097 3095 3093 3091 3089 3087 3085 3083 3081 3078 3076 3074 3072 3070 3068 3066 3064 3061 3058 3056 3053 3050 3047 3045 3042 3040 3038 3036 3033 3031 3028 3027 3026 3024 3022 3021 3020 3020 3019 3018 3018 3017 3017 3016 3016 3016 3017 3017 3018 3019 3020 3021 3021 3022 3025 3027
3127 3126 3126 3125 3124 3123 3123 3122 3121 3121 3120 3119 3118 3117 3117 3116 3116 3115 3114 3113 3112 3111 3109 3107 3106 3104 3102 3100 3098 3096 3094 3092 3090 3088 3086 3084 3082 3079 3077 3075 3073 3071 3068 3066 3064 3061 3058 3056 3053 3050 3047 3044 3042 3039 3037 3034 3032 3030 3027 3025 3023 3021 3020 3018 3017 3016 3015 3014 3014 3014 3013 3013 3012 3012 3012 3012 3013 3013 3014 3015 3016 3016 3017 3021 3023
3127 3126 3125 3125 3124 3123 3122 3122 3121 3120 3120 3119 3118 3117 3117 3116 3116 3115 3114 3113 3112 3110 3108 3107 3105 3103 3101 3099 3098 3096 3094 3092 3089 3087 3085 3083 3081 3078 3076 3074 3071 3069 3066 3064 3061 3059 3056 3053 3050 3047 3044 3041 3039 3036 3034 3031 3028 3026 3024 3021 3019 3017 3015 3014 3013 3012 3011 3011 3010 3009 3009 3009 3008 3008 3008 3008 3008 3009 3010 3010 3011 3011 3013 3017 3018
3126 3126 3125 3124 3124 3123 3122 3121 3121 3120 3119 3119 3118 3118 3117 3117 3116 3115 3114 3113 3111 3109 3108 3106 3104 3103 3101 3099 3097 3095 3093 3091 3089 3086 3084 3082 3079 3077 3075 3072 3069 3067 3064 3062 3059 3056 3054 3051 3048 3045 3042 3039 3036 3033 3030 3027 3025 3022 3020 3018 3015 3013 3011 3009 3009 3008 3007 3007 3006 3005 3004 3004 3004 3003 3004 3004 3004 3005 3006 3006 3006 3006 3009 3012 3013
3126 3126 3125 3125 3124 3123 3122 3122 3121 3120 3120 3119 3119 3118 3118 3117 3116 3115 3114 3112 3111 3109 3107 3106 3104 3102 3100 3098 3097 3094 3092 3090 3088 3085 3083 3080 3078 3075 3073 3070 3067 3064 3062 3060 3057 3054 3051 3048 3045 3042 3038 3035 3032 3029 3027 3024 3021 3018 3016 3014 3012 3009 3008 3006 3005 3004 3003 3002 3001 3001 3000 2999 2999 2999 2999 2999 3000 3001 3001 3002 3002 3002 3004 3007 3008
3127 3126 3125 3125 3124 3123 3122 3122 3121 3121 3120 3120 3119 3119 3118 3117 3116 3115 3113 3112 3110 3109 3107 3105 3103 3101 3100 3098 3096 3093 3091 3089 3087 3084 3081 3079 3076 3074 3071 3068 3066 3063 3060 3057 3055 3052 3048 3045 3041 3038 3035 3031 3028 3026 3023 3020 3017 3014 3012 3010 3008 3007 3005 3003 3002 3000 2998 2997 2996 2996 2995 2995 2995 2995 2995 2995 2996 2996 2997 2998 2998 2998 3000 3003 3003
3127 3127 3126 3125 3124 3123 3122 3122 3122 3121 3121 3120 3120 3119 3118 3117 3116 3114 3113 3112 3110 3108 3106 3104 3102 3101 3099 3097 3095 3092 3090 3088 3085 3083 3080 3077 3075 3072 3070 3067 3064 3061 3058 3055 3052 3049 3045 3042 3038 3034 3030 3027 3024 3021 3019 3016 3013 3011 3008 3006 3005 3003 3001 2999 2997 2995 2994 2993 2992 2992 2991 2991 2990 2990 2990 2990 2991 2992 2993 2994 2995 2995 2997 2998 2999
3127 3127 3125 3125 3124 3123 3123 3122 3122 3122 3121 3121 3120 3119 3118 3117 3116 3114 3113 3111 3109 3108 3106 3104 3102 3100 3098 3096 3093 3091 3089 3086 3084 3081 3079 3076 3074 3071 3068 3065 3062 3059 3056 3053 3050 3046 3041 3037 3033 3029 3026 3023 3020 3016 3014 3012 3010 3007 3005 3003 3000 2998 2996 2994 2992 2991 2990 2989 2988 2988 2987 2987 2986 2986 2986 2986 2987 2988 2989 2991 2992 2993 2994 2995 2995
3128 3126 3125 3125 3124 3124 3123 3123 3123 3122 3122 3121 3121 3120 3118 3117 3116 3114 3113 3111 3109 3107 3105 3103 3101 3100 3097 3095 3092 3090 3088 3085 3083 3080 3078 3075 3072 3070 3067 3064 3061 3058 3054 3051 3047 3043 3038 3033 3029 3026 3022 3019 3016 3013 3010 3008 3006 3004 3002 2999 2997 2994 2992 2990 2989 2987 2986 2985 2984 2984 2984 2984 2983 2983 2983 2983 2984 2985 2986 2987 2989 2990 2991 2991 2992
3128 3127 3126 3125 3125 3124 3124 3123 3123 3123 3122 3122 3121 3120 3118 3117 3116 3114 3112 3111 3109 3107 3105 3103 3101 3099 3096 3094 3092 3089 3087 3084 3082 3080 3077 3074 3071 3068 3065 3062 3059 3056 3053 3049 3045 3041 3036 3032 3029 3025 3020 3016 3013 3011 3008 3006 3004 3002 2999 2996 2994 2991 2989 2987 2985 2984 2983 2982 2981 2981 2981 2981 2981 2980 2980 2981 2981 2982 2982 2984 2986 2987 2988 2989 2989
3128 3127 3126 3126 3126 3125 3124 3124 3124 3123 3123 3122 3121 3120 3119 3118 3116 3114 3112 3111 3109 3106 3104 3102 3100 3098 3095 3093 3091 3088 3086 3084 3081 3078 3076 3073 3070 3067 3064 3061 3058 3054 3051 3047 3044 3040 3035 3031 3028 3024 3019 3015 3012 3010 3008 3005 3002 3000 2997 2994 2991 2989 2987 2985 2983 2982 2980 2979 2979 2978 2978 2978 2977 2977 2977 2978 2978 2978 2979 2980 2982 2984 2985 2987 2987
3129 3128 3127 3127 3126 3125 3125 3125 3124 3124 3123 3122 3121 3120 3119 3118 3116 3114 3112 3110 3108 3106 3104 3102 3100 3097 3095 3093 3090 3088 3085 3083 3080 3077 3075 3072 3069 3066 3063 3060 3056 3053 3049 3046 3042 3038 3033 3028 3024 3021 3017 3014 3012 3009 3007 3004 3001 2998 2995 2992 2989 2987 2985 2983 2981 2980 2979 2978 2977 2976 2976 2975 2975 2975 2975 2975 2975 2975 2976 2977 2978 2980 2982 2984 2985
3130 3129 3128 3127 3127 3126 3126 3125 3125 3124 3124 3123 3122 3121 3119 3118 3116 3114 3112 3110 3108 3106 3103 3101 3099 3097 3095 3092 3090 3087 3085 3082 3079 3077 3074 3071 3068 3065 3062 3059 3055 3052 3048 3045 3041 3036 3031 3026 3022 3019 3017 3014 3012 3009 3006 3003 3000 2997 2994 2991 2988 2986 2984 2982 2980 2979 2978 2977 2976 2975 2974 2973 2973 2972 2972 2972 2972 2972 2973 2974 2975 2976 2978 2980 2982
3130 3129 3128 3128 3127 3127 3126 3126 3125 3125 3124 3123 3122 3121 3119 3118 3116 3114 3112 3110 3108 3105 3103 3101 3099 3096 3094 3092 3089 3087 3084 3081 3079 3077 3074 3071 3068 3065 3061 3058 3054 3051 3048 3044 3040 3035 3030 3025 3021 3018 3016 3015 3012 3008 3005 3002 2999 2996 2994 2991 2988 2986 2983 2981 2979 2978 2976 2975 2974 2973 2972 2972 2971 2971 2970 2970 2970 2970 2971 2971 2972 2973 2975 2977 2979
3131 3130 3129 3128 3128 3127 3127 3126 3126 3125 3124 3123 3122 3121 3120 3118 3116 3114 3112 3110 3107 3105 3103 3101 3098 3096 3094 3092 3089 3086 3084 3081 3079 3076 3073 3070 3067 3064 3061 3057 3054 3051 3047 3043 3039 3034 3029 3025 3021 3018 3016 3014 3012 3008 3005 3001 2999 2997 2994 2991 2988 2985 2983 2981 2979 2977 2976 2975 2973 2972 2971 2970 2969 2969 2968 2968 2968 2968 2969 2969 2970 2970 2971 2973 2975
3131 3130 3129 3129 3129 3128 3127 3127 3126 3126 3125 3124 3122 3121 3120 3118 3116 3114 3111 3109 3107 3105 3103 3101 3098 3096 3094 3091 3089 3086 3084 3081 3078 3075 3073 3070 3067 3063 3060 3057 3054 3050 3047 3042 3038 3033 3028 3024 3021 3018 3015 3014 3012 3008 3005 3002 2999 2997 2994 2991 2988 2985 2982 2980 2979 2977 2976 2974 2973 2971 2970 2969 2968 2967 2967 2966 2967 2967 2967 2967 2968 2968 2969 2971 2973
3132 3131 3130 3130 3129 3128 3128 3127 3127 3126 3125 3124 3123 3122 3120 3118 3116 3114 3111 3109 3107 3105 3103 3101 3098 3096 3094 3091 3089 3086 3083 3081 3078 3075 3072 3069 3066 3063 3060 3057 3053 3050 3046 3042 3037 3032 3028 3024 3021 3018 3014 3012 3011 3008 3005 3002 3000 2996 2994 2991 2988 2985 2982 2980 2978 2977 2976 2973 2971 2970 2969 2968 2967 2966 2965 2965 2965 2965 2965 2966 2966 2967 2968 2969 2970
3132 3131 3131 3130 3129 3129 3128 3128 3127 3126 3126 3124 3123 3122 3120 3118 3116 3114 3112 3110 3108 3105 3103 3101 3098 3096 3094 3091 3089 3086 3083 3080 3078 3075 3072 3069 3066 3063 3060 3057 3053 3050 3045 3040 3035 3030 3027 3023 3020 3018 3015 3012 3010 3007 3005 3002 2999 2996 2994 2992 2989 2986 2983 2980 2978 2977 2975 2972 2970 2969 2968 2967 2966 2964 2963 2963 2963 2963 2964 2964 2965 2965 2966 2968 2969
3132 3131 3131 3130 3130 3129 3129 3128 3128 3127 3126 3125 3123 3122 3120 3118 3116 3114 3112 3110 3108 3105 3103 3101 3098 3096 3094 3091 3088 3086 3083 3080 3078 3075 3072 3069 3067 3064 3061 3058 3054 3050 3045 3039 3034 3030 3026 3023 3020 3018 3016 3013 3010 3008 3005 3002 2999 2997 2994 2992 2989 2986 2983 2981 2979 2976 2974 2971 2970 2969 2968 2967 2965 2963 2962 2961 2962 2963 2963 2964 2964 2965 2966 2967 2968
3132 3132 3132 3131 3130 3130 3129 3129 3128 3127 3126 3125 3124 3122 3120 3119 3116 3114 3112 3110 3108 3105 3103 3101 3099 3096 3094 3091 3088 3086 3083 3080 3078 3075 3072 3070 3067 3064 3061 3057 3054 3050 3044 3039 3034 3030 3026 3023 3021 3019 3017 3014 3011 3009 3006 3004 3001 2998 2996 2993 2990 2987 2984 2982 2980 2977 2975 2973 2971 2970 2969 2967 2965 2963 2962 2961 2961 2962 2962 2963 2964 2964 2966 2967 2968
3133 3132 3132 3131 3131 3130 3129 3129 3128 3128 3127 3125 3124 3122 3121 3119 3117 3114 3112 3110 3108 3106 3103 3101 3098 3096 3093 3091 3088 3086 3083 3080 3078 3075 3073 3070 3067 3064 3061 3057 3054 3049 3044 3039 3034 3030 3027 3024 3021 3019 3017 3014 3012 3009 3007 3004 3002 3000 2998 2995 2992 2989 2986 2983 2981 2979 2977 2975 2973 2971 2969 2967 2966 2965 2963 2962 2962 2962 2962 2963 2964 2965 2966 2967 2968
3133 3133 3132 3132 3131 3130 3130 3129 3128 3128 3127 3125 3124 3122 3121 3119 3117 3114 3112 3110 3108 3105 3103 3101 3098 3096 3093 3091 3088 3086 3083 3081 3078 3076 3073 3070 3068 3065 3062 3058 3054 3049 3044 3039 3034 3030 3027 3025 3022 3020 3017 3014 3012 3010 3007 3005 3003 3001 2999 2996 2993 2990 2987 2985 2983 2981 2980 2977 2975 2972 2970 2968 2966 2965 2965 2963 2963 2962 2962 2963 2964 2965 2966 2967 2968
3133 3133 3132 3132 3131 3130 3130 3129 3129 3128 3127 3125 3124 3122 3120 3119 3116 3114 3112 3110 3107 3105 3103 3101 3098 3096 3094 3091 3089 3086 3084 3081 3079 3076 3073 3071 3068 3065 3062 3059 3055 3050 3045 3040 3036 3032 3029 3026 3023 3020 3017 3014 3012 3010 3008 3005 3003 3002 2999 2996 2994 2991 2989 2988 2987 2985 2983 2979 2976 2974 2972 2970 2968 2966 2965 2965 2965 2963 2962 2963 2964 2966 2967 2967 2969
3134 3133 3132 3132 3131 3130 3130 3129 3129 3128 3127 3125 3124 3122 3121 3119 3117 3115 3113 3111 3108 3106 3104 3101 3099 3096 3094 3091 3089 3086 3084 3081 3079 3076 3074 3071 3069 3066 3063 3059 3056 3052 3047 3043 3039 3035 3031 3027 3024 3020 3017 3015 3012 3010 3008 3006 3004 3002 2999 2997 2995 2993 2992 2991 2989 2987 2985 2982 2980 2978 2975 2972 2970 2968 2967 2967 2967 2966 2964 2964 2965 2967 2968 2969 2970
3134 3133 3132 3132 3131 3131 3130 3130 3129 3128 3127 3126 3124 3123 3121 3119 3117 3115 3114 3111 3109 3106 3104 3101 3099 3096 3094 3091 3089 3087 3084 3082 3079 3077 3074 3072 3070 3067 3064 3060 3057 3053 3049 3045 3041 3037 3033 3029 3025 3022 3018 3015 3013 3010 3008 3006 3005 3003 3000 2998 2998 2996 2995 2993 2991 2989 2988 2986 2984 2981 2979 2976 2973 2971 2970 2969 2970 2969 2967 2966 2967 2968 2970 2971 2972
3134 3133 3132 3132 3131 3131 3130 3130 3129 3128 3127 3126 3124 3123 3121 3119 3117 3115 3113 3111 3109 3106 3104 3102 3099 3096 3094 3092 3089 3087 3085 3082 3080 3077 3075 3073 3071 3068 3065 3062 3059 3055 3051 3047 3044 3040 3036 3032 3028 3024 3020 3016 3013 3011 3009 3008 3006 3004 3002 3001 2999 2998 2997 2996 2994 2992 2990 2988 2987 2985 2983 2980 2978 2975 2973 2972 2972 2972 2969 2969 2970 2971 2972 2974 2974
3133 3133 3132 3132 3131 3131 3130 3129 3129 3128 3127 3126 3124 3123 3121 3119 3117 3115 3114 3111 3109 3107 3104 3102 3099 3097 3094 3092 3089 3087 3085 3082 3080 3078 3076 3074 3072 3069 3066 3063 3060 3056 3052 3049 3046 3043 3039 3035 3030 3027 3022 3017 3013 3012 3011 3010 3008 3006 3004 3003 3001 3000 2999 2998 2996 2995 2993 2991 2989 2988 2986 2984 2982 2980 2977 2975 2973 2973 2972 2971 2972 2973 2975 2977 2977
3133 3133 3132 3132 3131 3131 3130 3129 3129 3128 3127 3126 3124 3123 3121 3119 3118 3116 3114 3112 3109 3107 3105 3102 3100 3097 3094 3092 3090 3088 3085 3083 3081 3079 3077 3075 3072 3070 3067 3064 3061 3058 3055 3051 3048 3045 3041 3037 3033 3030 3026 3021 3016 3014 3012 3011 3010 3009 3007 3006 3004 3003 3002 3000 2999 2997 2995 2993 2991 2989 2988 2987 2985 2983 2982 2979 2976 2975 2976 2976 2976 2976 2978 2979 2980
3133 3133 3132 3132 3131 3131 3130 3129 3129 3128 3127 3126 3124 3123 3121 3120 3118 3116 3114 3112 3110 3107 3105 3102 3100 3097 3095 3093 3090 3088 3086 3083 3081 3079 3077 3075 3073 3071 3068 3065 3062 3060 3056 3053 3050 3047 3044 3041 3037 3034 3030 3025 3020 3017 3015 3014 3013 3012 3010 3009 3007 3006 3004 3002 3001 2999 2997 2995 2993 2991 2990 2988 2987 2986 2985 2984 2982 2980 2979 2979 2980 2980 2981 2982 2983